Time,TemperatureF,DewpointF,PressureIn,WindDirection,WindDirectionDegrees,WindSpeedMPH,WindSpeedGustMPH,Humidity,HourlyPrecipIn,Conditions,Clouds,dailyrainin,SolarRadiationWatts/m^2,SoftwareType,DateUTC
2013-02-06 00:00:00,27.6,25.6,29.95,West,275,2.4,4.6,92,0.00,OVC,,0.00,0.0,WeatherDisplay:10.37,2013-02-06 05:00:00,
2013-02-06 00:05:00,27.8,25.8,29.96,West,280,2.0,3.5,92,0.00,-SN,,0.00,0.0,WeatherDisplay:10.37,2013-02-06 05:05:00,
2013-02-06 00:10:00,27.9,25.9,29.96,West,272,3.6,9.0,92,0.00,-SN,,0.00,0.0,WeatherDisplay:10.37,2013-02-06 05:10:00,
2013-02-06 00:15:00,28.1,25.8,29.96,NW,304,6.8,10.5,91,0.00,-SN,,0.00,0.0,WeatherDisplay:10.37,2013-02-06 05:15:00,
2013-02-06 00:16:00,28.1,25.8,29.96,NW,309,8.1,8.1,91,0.00,-SN,,0.00,0.0,WeatherDisplay:10.37,2013-02-06 05:16:00,
2013-02-06 00:21:00,28.1,25.5,29.96,NW,325,7.5,9.0,90,0.00,-SN,,0.00,0.0,WeatherDisplay:10.37,2013-02-06 05:21:00,
2013-02-06 00:26:00,27.9,24.5,29.96,NNW,339,3.4,10.5,87,0.00,-SN,,0.00,0.0,WeatherDisplay:10.37,2013-02-06 05:26:00,
2013-02-06 00:31:00,27.9,24.0,29.97,West,265,4.9,10.4,85,0.00,-SN,,0.00,0.0,WeatherDisplay:10.37,2013-02-06 05:31:00,
2013-02-06 00:36:00,27.9,23.7,29.97,WNW,288,2.7,4.6,84,0.00,-SN,,0.00,0.0,WeatherDisplay:10.37,2013-02-06 05:36:00,
2013-02-06 00:41:00,27.8,23.6,29.97,NW,309,1.8,3.5,84,0.00,-SN,,0.00,0.0,WeatherDisplay:10.37,2013-02-06 05:41:00,
2013-02-06 00:46:00,27.8,23.3,29.98,West,275,3.3,3.5,83,0.00,-SN,,0.00,0.0,WeatherDisplay:10.37,2013-02-06 05:46:00,
2013-02-06 00:51:00,27.8,23.3,29.98,NW,322,0.3,4.6,83,0.00,-SN,,0.00,0.0,WeatherDisplay:10.37,2013-02-06 05:51:00,
2013-02-06 00:56:00,27.6,22.8,29.98,NW,312,4.5,4.6,82,0.00,-SN,,0.00,0.0,WeatherDisplay:10.37,2013-02-06 05:56:00,
2013-02-06 01:01:00,27.6,22.8,29.98,WNW,294,8.3,9.0,82,0.00,-SN,,0.00,0.0,WeatherDisplay:10.37,2013-02-06 06:01:00,
2013-02-06 01:06:00,27.6,22.8,29.98,WNW,294,2.2,4.5,82,0.00,-SN,,0.00,0.0,WeatherDisplay:10.37,2013-02-06 06:06:00,
2013-02-06 01:11:00,27.5,22.7,29.98,North,350,5.0,11.5,82,0.00,-SN,,0.00,0.0,WeatherDisplay:10.37,2013-02-06 06:11:00,
2013-02-06 01:16:00,27.5,22.7,29.99,NW,325,3.1,4.6,82,0.00,-SN,,0.00,0.0,WeatherDisplay:10.37,2013-02-06 06:16:00,
2013-02-06 01:21:00,27.3,22.5,29.99,WNW,288,5.9,5.9,82,0.00,-SN,,0.00,0.0,WeatherDisplay:10.37,2013-02-06 06:21:00,
2013-02-06 01:26:00,27.2,22.7,29.99,WNW,298,6.9,8.1,83,0.00,-SN,,0.00,0.0,WeatherDisplay:10.37,2013-02-06 06:26:00,
2013-02-06 01:31:00,27.0,22.2,30.01,NW,304,5.2,10.4,82,0.00,-SN,,0.00,0.0,WeatherDisplay:10.37,2013-02-06 06:31:00,
2013-02-06 01:36:00,26.9,22.1,30.01,NW,315,9.0,9.2,82,0.00,-SN,,0.00,0.0,WeatherDisplay:10.37,2013-02-06 06:36:00,
2013-02-06 01:41:00,26.7,21.9,30.01,WNW,302,7.3,9.2,82,0.00,-SN,,0.00,0.0,WeatherDisplay:10.37,2013-02-06 06:41:00,
2013-02-06 01:46:00,26.6,21.6,30.02,NNW,332,4.9,9.2,81,0.00,-SN,,0.00,0.0,WeatherDisplay:10.37,2013-02-06 06:46:00,
2013-02-06 01:51:00,26.4,21.4,30.02,WNW,298,9.9,16.5,81,0.00,-SN,,0.00,0.0,WeatherDisplay:10.37,2013-02-06 06:51:00,
2013-02-06 01:56:00,26.3,21.3,30.02,NNW,328,6.3,6.3,81,0.00,-SN,,0.00,0.0,WeatherDisplay:10.37,2013-02-06 06:56:00,
2013-02-06 02:01:00,26.1,20.8,30.03,NNW,337,6.5,7.5,80,0.00,-SN,,0.00,0.0,WeatherDisplay:10.37,2013-02-06 07:01:00,
2013-02-06 02:06:00,25.8,19.9,30.03,NW,315,6.1,7.5,78,0.00,-SN,,0.00,0.0,WeatherDisplay:10.37,2013-02-06 07:06:00,
2013-02-06 02:11:00,25.7,19.8,30.03,WNW,287,6.4,9.0,78,0.00,-SN,,0.00,0.0,WeatherDisplay:10.37,2013-02-06 07:11:00,
2013-02-06 02:16:00,25.4,19.5,30.04,NW,316,6.4,8.1,78,0.00,-SN,,0.00,0.0,WeatherDisplay:10.37,2013-02-06 07:16:00,
2013-02-06 02:21:00,25.4,19.5,30.04,West,277,5.2,9.2,78,0.00,-SN,,0.00,0.0,WeatherDisplay:10.37,2013-02-06 07:21:00,
2013-02-06 02:26:00,25.3,19.4,30.04,NW,326,3.0,3.5,78,0.00,-SN,,0.00,0.0,WeatherDisplay:10.37,2013-02-06 07:26:00,
2013-02-06 02:31:00,25.3,19.4,30.06,WNW,302,3.2,4.6,78,0.00,-SN,,0.00,0.0,WeatherDisplay:10.37,2013-02-06 07:31:00,
2013-02-06 02:36:00,25.3,19.4,30.06,WNW,302,1.3,3.5,78,0.00,-SN,,0.00,0.0,WeatherDisplay:10.37,2013-02-06 07:36:00,
2013-02-06 02:41:00,25.1,19.2,30.06,West,277,4.7,8.1,78,0.00,-SN,,0.00,0.0,WeatherDisplay:10.37,2013-02-06 07:41:00,
2013-02-06 02:46:00,25.1,19.2,30.07,West,280,2.1,4.5,78,0.00,-SN,,0.00,0.0,WeatherDisplay:10.37,2013-02-06 07:46:00,
2013-02-06 02:51:00,25.1,19.2,30.07,West,280,2.8,3.5,78,0.00,-SN,,0.00,0.0,WeatherDisplay:10.37,2013-02-06 07:51:00,
2013-02-06 02:56:00,25.0,19.1,30.07,WNW,289,3.3,4.6,78,0.00,-SN,,0.00,0.0,WeatherDisplay:10.37,2013-02-06 07:56:00,
2013-02-06 03:01:00,24.8,18.9,30.08,NNW,330,6.0,6.0,78,0.00,-SN,,0.00,0.0,WeatherDisplay:10.37,2013-02-06 08:01:00,
2013-02-06 03:06:00,24.7,18.5,30.08,WNW,296,3.6,4.5,77,0.00,-SN,,0.00,0.0,WeatherDisplay:10.37,2013-02-06 08:06:00,
2013-02-06 03:11:00,24.5,18.3,30.08,NW,316,3.6,4.5,77,0.00,-SN,,0.00,0.0,WeatherDisplay:10.37,2013-02-06 08:11:00,
2013-02-06 03:16:00,24.4,18.2,30.09,NW,319,6.0,8.1,77,0.00,-SN,,0.00,0.0,WeatherDisplay:10.37,2013-02-06 08:16:00,
2013-02-06 03:21:00,24.4,18.2,30.09,NW,319,6.0,9.0,77,0.00,-SN,,0.00,0.0,WeatherDisplay:10.37,2013-02-06 08:21:00,
2013-02-06 03:26:00,24.2,18.0,30.09,NW,319,3.5,9.2,77,0.00,-SN,,0.00,0.0,WeatherDisplay:10.37,2013-02-06 08:26:00,
2013-02-06 03:31:00,24.2,18.0,30.09,NW,321,2.0,9.0,77,0.00,-SN,,0.00,0.0,WeatherDisplay:10.37,2013-02-06 08:31:00,
2013-02-06 03:36:00,24.1,17.9,30.09,NW,319,3.9,4.6,77,0.00,-SN,,0.00,0.0,WeatherDisplay:10.37,2013-02-06 08:36:00,
2013-02-06 03:41:00,24.1,17.6,30.09,NW,323,3.0,11.0,76,0.00,-SN,,0.00,0.0,WeatherDisplay:10.37,2013-02-06 08:41:00,
2013-02-06 03:46:00,23.9,16.8,30.09,NW,316,7.1,10.4,74,0.00,-SN,,0.00,0.0,WeatherDisplay:10.37,2013-02-06 08:46:00,
2013-02-06 03:51:00,23.9,15.9,30.09,NW,317,6.0,12.0,71,0.00,-SN,,0.00,0.0,WeatherDisplay:10.37,2013-02-06 08:51:00,
2013-02-06 03:56:00,23.6,15.2,30.09,NW,315,1.3,4.6,70,0.00,-SN,,0.00,0.0,WeatherDisplay:10.37,2013-02-06 08:56:00,
2013-02-06 04:01:00,23.5,15.1,30.11,NW,315,2.7,3.5,70,0.00,-SN,,0.00,0.0,WeatherDisplay:10.37,2013-02-06 09:01:00,
2013-02-06 04:06:00,23.0,15.0,30.11,NW,315,0.1,1.5,71,0.00,-SN,,0.00,0.0,WeatherDisplay:10.37,2013-02-06 09:06:00,
2013-02-06 04:11:00,22.7,14.7,30.11,NW,315,2.0,5.0,71,0.00,-SN,,0.00,0.0,WeatherDisplay:10.37,2013-02-06 09:11:00,
2013-02-06 04:16:00,22.2,14.5,30.12,NW,315,0.2,1.1,72,0.00,-SN,,0.00,0.0,WeatherDisplay:10.37,2013-02-06 09:16:00,
2013-02-06 04:21:00,21.9,14.6,30.12,NW,315,1.0,3.0,73,0.00,-SN,,0.00,0.0,WeatherDisplay:10.37,2013-02-06 09:21:00,
2013-02-06 04:26:00,21.8,15.1,30.12,NW,315,0.0,1.1,75,0.00,-SN,,0.00,0.0,WeatherDisplay:10.37,2013-02-06 09:26:00,
2013-02-06 04:31:00,21.4,14.7,30.12,NW,315,1.0,3.0,75,0.00,-SN,,0.00,0.0,WeatherDisplay:10.37,2013-02-06 09:31:00,
2013-02-06 04:36:00,21.1,14.7,30.13,NW,315,0.1,1.1,76,0.00,-SN,,0.00,0.0,WeatherDisplay:10.37,2013-02-06 09:36:00,
2013-02-06 04:41:00,20.8,14.7,30.13,NW,315,0.0,0.0,77,0.00,-SN,,0.00,0.0,WeatherDisplay:10.37,2013-02-06 09:41:00,
2013-02-06 04:46:00,20.5,14.4,30.14,NW,315,1.6,3.5,77,0.00,-SN,,0.00,0.0,WeatherDisplay:10.37,2013-02-06 09:46:00,
2013-02-06 04:51:00,20.3,14.5,30.14,NW,315,0.0,0.0,78,0.00,-SN,,0.00,0.0,WeatherDisplay:10.37,2013-02-06 09:51:00,
2013-02-06 04:56:00,20.2,14.4,30.14,NW,315,2.1,3.5,78,0.00,-SN,,0.00,0.0,WeatherDisplay:10.37,2013-02-06 09:56:00,
2013-02-06 05:01:00,19.9,14.4,30.15,NW,315,0.0,0.0,79,0.00,-SN,,0.00,0.0,WeatherDisplay:10.37,2013-02-06 10:01:00,
2013-02-06 05:06:00,19.7,14.2,30.15,NW,315,0.0,0.0,79,0.00,OVC,,0.00,0.0,WeatherDisplay:10.37,2013-02-06 10:06:00,
2013-02-06 05:11:00,19.4,14.0,30.15,NW,315,0.0,0.0,79,0.00,OVC,,0.00,0.0,WeatherDisplay:10.37,2013-02-06 10:11:00,
2013-02-06 05:16:00,19.1,13.7,30.16,NW,315,0.0,0.0,79,0.00,OVC,,0.00,0.0,WeatherDisplay:10.37,2013-02-06 10:16:00,
2013-02-06 05:21:00,18.6,13.2,30.16,NW,315,0.0,0.0,79,0.00,OVC,,0.00,0.0,WeatherDisplay:10.37,2013-02-06 10:21:00,
2013-02-06 05:26:00,18.0,12.9,30.16,NW,315,0.0,0.0,80,0.00,OVC,,0.00,0.0,WeatherDisplay:10.37,2013-02-06 10:26:00,
2013-02-06 05:31:00,17.6,12.4,30.16,NW,315,0.0,0.0,80,0.00,OVC,,0.00,0.0,WeatherDisplay:10.37,2013-02-06 10:31:00,
2013-02-06 05:36:00,17.2,12.4,30.17,NW,315,0.0,0.0,81,0.00,OVC,,0.00,0.0,WeatherDisplay:10.37,2013-02-06 10:36:00,
2013-02-06 05:41:00,16.7,11.9,30.17,NW,315,0.0,0.0,81,0.00,OVC,,0.00,0.0,WeatherDisplay:10.37,2013-02-06 10:41:00,
2013-02-06 05:46:00,16.2,11.4,30.17,NW,315,0.0,0.0,81,0.00,OVC,,0.00,0.0,WeatherDisplay:10.37,2013-02-06 10:46:00,
2013-02-06 05:51:00,15.8,11.0,30.17,NW,315,0.0,0.0,81,0.00,OVC,,0.00,0.0,WeatherDisplay:10.37,2013-02-06 10:51:00,
2013-02-06 05:56:00,15.2,10.7,30.17,NW,315,0.0,0.0,82,0.00,OVC,,0.00,0.0,WeatherDisplay:10.37,2013-02-06 10:56:00,
2013-02-06 06:01:00,14.9,10.4,30.18,NW,315,0.0,0.0,82,0.00,OVC,,0.00,0.0,WeatherDisplay:10.37,2013-02-06 11:01:00,
2013-02-06 06:06:00,14.6,10.4,30.18,NW,315,0.0,0.0,83,0.00,BKN,,0.00,0.0,WeatherDisplay:10.37,2013-02-06 11:06:00,
2013-02-06 06:11:00,14.3,10.1,30.18,NW,315,0.0,0.0,83,0.00,BKN,,0.00,0.0,WeatherDisplay:10.37,2013-02-06 11:11:00,
2013-02-06 06:16:00,14.0,10.1,30.18,NW,315,0.0,0.0,84,0.00,BKN,,0.00,0.0,WeatherDisplay:10.37,2013-02-06 11:16:00,
2013-02-06 06:21:00,13.6,9.7,30.18,NW,315,0.0,0.0,84,0.00,BKN,,0.00,0.0,WeatherDisplay:10.37,2013-02-06 11:21:00,
2013-02-06 06:26:00,13.3,9.4,30.18,NW,315,0.0,0.0,84,0.00,BKN,,0.00,0.0,WeatherDisplay:10.37,2013-02-06 11:26:00,
2013-02-06 06:31:00,13.1,9.4,30.19,NW,315,0.0,0.0,85,0.00,BKN,,0.00,0.0,WeatherDisplay:10.37,2013-02-06 11:31:00,
2013-02-06 06:36:00,12.8,9.1,30.19,NW,315,0.0,0.0,85,0.00,BKN,,0.00,0.0,WeatherDisplay:10.37,2013-02-06 11:36:00,
2013-02-06 06:41:00,12.6,8.9,30.19,NW,315,0.0,0.0,85,0.00,BKN,,0.00,0.0,WeatherDisplay:10.37,2013-02-06 11:41:00,
2013-02-06 06:46:00,12.4,8.7,30.20,NW,315,0.0,0.0,85,0.00,BKN,,0.00,0.0,WeatherDisplay:10.37,2013-02-06 11:46:00,
2013-02-06 06:51:00,12.3,8.7,30.20,NW,315,0.0,0.0,85,0.00,BKN,,0.00,0.0,WeatherDisplay:10.37,2013-02-06 11:51:00,
2013-02-06 06:56:00,12.1,8.5,30.20,NW,315,0.0,0.0,85,0.00,BKN,,0.00,0.0,WeatherDisplay:10.37,2013-02-06 11:56:00,
2013-02-06 07:01:00,11.9,8.5,30.20,NW,315,0.0,0.0,86,0.00,BKN,,0.00,0.0,WeatherDisplay:10.37,2013-02-06 12:01:00,
2013-02-06 07:06:00,11.7,8.3,30.20,NW,315,0.0,0.0,86,0.00,BKN,,0.00,0.0,WeatherDisplay:10.37,2013-02-06 12:06:00,
2013-02-06 07:11:00,11.7,8.3,30.20,NW,315,0.0,0.0,86,0.00,BKN,,0.00,0.0,WeatherDisplay:10.37,2013-02-06 12:11:00,
2013-02-06 07:16:00,11.6,8.2,30.22,NW,315,0.0,0.0,86,0.00,BKN,,0.00,0.0,WeatherDisplay:10.37,2013-02-06 12:16:00,
2013-02-06 07:21:00,11.6,8.5,30.22,NW,315,0.0,0.0,87,0.00,BKN,,0.00,0.0,WeatherDisplay:10.37,2013-02-06 12:21:00,
2013-02-06 07:26:00,11.4,8.3,30.22,NW,315,0.0,0.0,87,0.00,BKN,,0.00,0.0,WeatherDisplay:10.37,2013-02-06 12:26:00,
2013-02-06 07:31:00,11.7,8.6,30.23,NW,315,0.0,0.0,87,0.00,BKN,,0.00,0.0,WeatherDisplay:10.37,2013-02-06 12:31:00,
2013-02-06 07:36:00,11.6,8.5,30.23,NW,315,0.0,0.0,87,0.00,BKN,,0.00,5.0,WeatherDisplay:10.37,2013-02-06 12:36:00,
2013-02-06 07:41:00,11.6,8.5,30.23,NW,315,0.0,0.0,87,0.00,BKN,,0.00,5.0,WeatherDisplay:10.37,2013-02-06 12:41:00,
2013-02-06 07:46:00,11.4,8.3,30.24,NW,315,0.0,0.0,87,0.00,BKN,,0.00,7.0,WeatherDisplay:10.37,2013-02-06 12:46:00,
2013-02-06 07:51:00,11.2,8.1,30.24,NW,315,0.0,0.0,87,0.00,BKN,,0.00,11.0,WeatherDisplay:10.37,2013-02-06 12:51:00,
2013-02-06 07:56:00,11.2,8.1,30.24,NW,315,0.0,0.0,87,0.00,BKN,,0.00,12.0,WeatherDisplay:10.37,2013-02-06 12:56:00,
2013-02-06 08:01:00,11.4,8.5,30.25,NW,315,0.0,0.0,88,0.00,BKN,,0.00,16.0,WeatherDisplay:10.37,2013-02-06 13:01:00,
2013-02-06 08:06:00,11.9,9.0,30.25,NW,315,0.0,0.0,88,0.00,SCT,,0.00,18.0,WeatherDisplay:10.37,2013-02-06 13:06:00,
2013-02-06 08:11:00,12.2,9.5,30.25,NW,315,0.0,0.0,89,0.00,SCT,,0.00,21.0,WeatherDisplay:10.37,2013-02-06 13:11:00,
2013-02-06 08:16:00,12.4,9.8,30.26,NW,315,0.0,0.0,89,0.00,SCT,,0.00,32.0,WeatherDisplay:10.37,2013-02-06 13:16:00,
2013-02-06 08:21:00,12.9,10.3,30.26,NW,315,0.0,0.0,89,0.00,SCT,,0.00,55.0,WeatherDisplay:10.37,2013-02-06 13:21:00,
2013-02-06 08:26:00,14.1,11.7,30.26,NW,315,0.0,0.0,90,0.00,SCT,,0.00,69.0,WeatherDisplay:10.37,2013-02-06 13:26:00,
2013-02-06 08:31:00,14.6,12.2,30.26,NW,315,0.0,0.0,90,0.00,SCT,,0.00,127.0,WeatherDisplay:10.37,2013-02-06 13:31:00,
2013-02-06 08:36:00,15.4,13.0,30.27,NW,315,0.0,0.0,90,0.00,SCT,,0.00,137.0,WeatherDisplay:10.37,2013-02-06 13:36:00,
2013-02-06 08:41:00,16.1,13.4,30.27,NW,315,0.0,0.0,89,0.00,SCT,,0.00,44.0,WeatherDisplay:10.37,2013-02-06 13:41:00,
2013-02-06 08:46:00,16.9,14.5,30.27,NW,315,0.0,0.0,90,0.00,SCT,,0.00,128.0,WeatherDisplay:10.37,2013-02-06 13:46:00,
2013-02-06 08:51:00,17.5,14.8,30.27,NW,315,0.9,1.5,89,0.00,SCT,,0.00,37.0,WeatherDisplay:10.37,2013-02-06 13:51:00,
2013-02-06 08:56:00,18.0,15.3,30.27,NW,315,0.0,1.1,89,0.00,SCT,,0.00,49.0,WeatherDisplay:10.37,2013-02-06 13:56:00,
2013-02-06 09:01:00,18.4,16.0,30.27,NW,315,0.0,0.0,90,0.00,SCT,,0.00,37.0,WeatherDisplay:10.37,2013-02-06 14:01:00,
2013-02-06 09:06:00,18.9,16.5,30.27,NW,315,0.0,0.0,90,0.00,SCT,,0.00,37.0,WeatherDisplay:10.37,2013-02-06 14:06:00,
2013-02-06 09:11:00,19.4,16.7,30.27,NW,315,2.5,3.5,89,0.00,SCT,,0.00,37.0,WeatherDisplay:10.37,2013-02-06 14:11:00,
2013-02-06 09:16:00,19.5,16.5,30.27,NW,315,1.9,3.5,88,0.00,SCT,,0.00,46.0,WeatherDisplay:10.37,2013-02-06 14:16:00,
2013-02-06 09:21:00,19.9,16.6,30.27,NW,315,2.0,3.0,87,0.00,SCT,,0.00,150.0,WeatherDisplay:10.37,2013-02-06 14:21:00,
2013-02-06 09:26:00,20.2,16.7,30.27,NW,315,1.5,1.5,86,0.00,SCT,,0.00,42.0,WeatherDisplay:10.37,2013-02-06 14:26:00,
2013-02-06 09:31:00,20.5,16.2,30.27,NW,315,0.8,3.5,83,0.00,SCT,,0.00,199.0,WeatherDisplay:10.37,2013-02-06 14:31:00,
2013-02-06 09:36:00,21.0,16.1,30.27,NW,315,3.5,3.5,81,0.00,SCT,,0.00,141.0,WeatherDisplay:10.37,2013-02-06 14:36:00,
2013-02-06 09:41:00,21.4,16.2,30.27,NW,315,2.0,3.0,80,0.00,SCT,,0.00,118.0,WeatherDisplay:10.37,2013-02-06 14:41:00,
2013-02-06 09:46:00,21.9,16.1,30.28,NW,313,3.3,4.6,78,0.00,SCT,,0.00,99.0,WeatherDisplay:10.37,2013-02-06 14:46:00,
2013-02-06 09:51:00,22.2,15.7,30.28,WNW,293,3.0,8.0,76,0.00,SCT,,0.00,259.0,WeatherDisplay:10.37,2013-02-06 14:51:00,
2013-02-06 09:56:00,22.5,15.8,30.28,West,265,0.9,1.5,75,0.00,SCT,,0.00,169.0,WeatherDisplay:10.37,2013-02-06 14:56:00,
2013-02-06 10:01:00,22.9,15.8,30.28,West,276,3.0,5.0,74,0.00,SCT,,0.00,169.0,WeatherDisplay:10.37,2013-02-06 15:01:00,
2013-02-06 10:06:00,23.3,15.6,30.27,West,281,2.1,4.6,72,0.00,SCT,,0.00,132.0,WeatherDisplay:10.37,2013-02-06 15:06:00,
2013-02-06 10:11:00,23.9,15.8,30.27,West,278,3.0,6.0,71,0.00,SCT,,0.00,153.0,WeatherDisplay:10.37,2013-02-06 15:11:00,
2013-02-06 10:16:00,24.2,15.8,30.27,WNW,287,1.5,3.0,70,0.00,SCT,,0.00,162.0,WeatherDisplay:10.37,2013-02-06 15:16:00,
2013-02-06 10:21:00,24.4,15.0,30.27,WNW,287,4.3,4.6,67,0.00,SCT,,0.00,144.0,WeatherDisplay:10.37,2013-02-06 15:21:00,
2013-02-06 10:26:00,24.4,15.0,30.27,WNW,288,3.4,4.6,67,0.00,SCT,,0.00,230.0,WeatherDisplay:10.37,2013-02-06 15:26:00,
2013-02-06 10:31:00,24.9,16.2,30.28,WNW,288,0.0,5.0,69,0.00,SCT,,0.00,167.0,WeatherDisplay:10.37,2013-02-06 15:31:00,
2013-02-06 10:36:00,25.7,16.3,30.28,WNW,287,2.5,3.5,67,0.00,SCT,,0.00,178.0,WeatherDisplay:10.37,2013-02-06 15:36:00,
2013-02-06 10:41:00,25.6,15.5,30.28,West,276,3.0,5.0,65,0.00,SCT,,0.00,299.0,WeatherDisplay:10.37,2013-02-06 15:41:00,
2013-02-06 10:46:00,25.8,15.3,30.29,West,271,0.8,3.5,64,0.00,SCT,,0.00,132.0,WeatherDisplay:10.37,2013-02-06 15:46:00,
2013-02-06 10:51:00,25.8,15.3,30.29,WNW,287,5.0,5.0,64,0.00,SCT,,0.00,104.0,WeatherDisplay:10.37,2013-02-06 15:51:00,
2013-02-06 10:56:00,26.0,15.5,30.29,WNW,289,1.2,1.5,64,0.00,SCT,,0.00,236.0,WeatherDisplay:10.37,2013-02-06 15:56:00,
2013-02-06 11:01:00,26.0,14.4,30.29,WNW,285,3.6,4.6,61,0.00,SCT,,0.00,373.0,WeatherDisplay:10.37,2013-02-06 16:01:00,
2013-02-06 11:06:00,25.7,14.5,30.29,West,281,2.8,3.5,62,0.00,FEW,,0.00,442.0,WeatherDisplay:10.37,2013-02-06 16:06:00,
2013-02-06 11:11:00,26.0,14.7,30.29,WNW,282,3.0,5.0,62,0.00,FEW,,0.00,322.0,WeatherDisplay:10.37,2013-02-06 16:11:00,
2013-02-06 11:16:00,26.7,15.4,30.29,WSW,251,1.8,3.5,62,0.00,FEW,,0.00,392.0,WeatherDisplay:10.37,2013-02-06 16:16:00,
2013-02-06 11:21:00,27.0,14.9,30.29,WNW,290,3.0,5.0,60,0.00,FEW,,0.00,477.0,WeatherDisplay:10.37,2013-02-06 16:21:00,
2013-02-06 11:26:00,27.0,14.6,30.29,WNW,298,4.6,4.6,59,0.00,FEW,,0.00,465.0,WeatherDisplay:10.37,2013-02-06 16:26:00,
2013-02-06 11:31:00,27.0,14.9,30.28,West,272,3.0,8.0,60,0.00,FEW,,0.00,545.0,WeatherDisplay:10.37,2013-02-06 16:31:00,
2013-02-06 11:36:00,28.1,16.4,30.28,SW,229,3.7,4.6,61,0.00,FEW,,0.00,479.0,WeatherDisplay:10.37,2013-02-06 16:36:00,
2013-02-06 11:41:00,28.0,15.5,30.28,WSW,241,2.0,8.0,59,0.00,FEW,,0.00,547.0,WeatherDisplay:10.37,2013-02-06 16:41:00,
2013-02-06 11:46:00,28.2,16.1,30.28,West,261,3.3,4.5,60,0.00,FEW,,0.00,551.0,WeatherDisplay:10.37,2013-02-06 16:46:00,
2013-02-06 11:51:00,28.4,15.5,30.28,West,261,3.0,6.0,58,0.00,FEW,,0.00,551.0,WeatherDisplay:10.37,2013-02-06 16:51:00,
2013-02-06 11:56:00,29.0,16.1,30.28,SSW,203,3.3,4.6,58,0.00,FEW,,0.00,570.0,WeatherDisplay:10.37,2013-02-06 16:56:00,
2013-02-06 12:01:00,29.0,15.2,30.28,SW,216,2.0,9.0,56,0.00,FEW,,0.00,574.0,WeatherDisplay:10.37,2013-02-06 17:01:00,
2013-02-06 12:06:00,29.4,15.6,30.28,ESE,119,3.6,7.5,56,0.00,FEW,,0.00,572.0,WeatherDisplay:10.37,2013-02-06 17:06:00,
2013-02-06 12:11:00,30.1,16.3,30.28,ESE,116,3.0,8.0,56,0.00,FEW,,0.00,538.0,WeatherDisplay:10.37,2013-02-06 17:11:00,
2013-02-06 12:16:00,31.0,17.1,30.28,ESE,116,4.0,4.6,56,0.00,FEW,,0.00,582.0,WeatherDisplay:10.37,2013-02-06 17:16:00,
2013-02-06 12:21:00,31.3,16.5,30.28,SE,126,3.0,5.0,54,0.00,FEW,,0.00,589.0,WeatherDisplay:10.37,2013-02-06 17:21:00,
2013-02-06 12:26:00,30.4,16.1,30.28,West,271,5.5,9.0,55,0.00,FEW,,0.00,581.0,WeatherDisplay:10.37,2013-02-06 17:26:00,
2013-02-06 12:31:00,29.7,15.5,30.28,West,278,7.2,7.2,55,0.00,FEW,,0.00,598.0,WeatherDisplay:10.37,2013-02-06 17:31:00,
2013-02-06 12:36:00,29.4,15.6,30.28,West,271,4.5,6.0,56,0.00,FEW,,0.00,596.0,WeatherDisplay:10.37,2013-02-06 17:36:00,
2013-02-06 12:41:00,29.4,15.2,30.28,West,281,5.7,8.1,55,0.00,FEW,,0.00,589.0,WeatherDisplay:10.37,2013-02-06 17:41:00,
2013-02-06 12:46:00,30.1,15.4,30.28,SW,217,6.2,8.1,54,0.00,FEW,,0.00,591.0,WeatherDisplay:10.37,2013-02-06 17:46:00,
2013-02-06 12:51:00,30.3,16.5,30.28,NW,322,7.2,10.4,56,0.00,FEW,,0.00,596.0,WeatherDisplay:10.37,2013-02-06 17:51:00,
2013-02-06 12:56:00,30.0,16.2,30.28,WSW,243,3.0,4.6,56,0.00,FEW,,0.00,589.0,WeatherDisplay:10.37,2013-02-06 17:56:00,
2013-02-06 13:01:00,30.3,16.5,30.28,South,188,6.3,8.1,56,0.00,FEW,,0.00,549.0,WeatherDisplay:10.37,2013-02-06 18:01:00,
2013-02-06 13:06:00,30.9,16.6,30.28,West,270,3.9,6.0,55,0.00,FEW,,0.00,428.0,WeatherDisplay:10.37,2013-02-06 18:06:00,
2013-02-06 13:11:00,30.9,16.2,30.28,SSW,212,5.9,8.1,54,0.00,FEW,,0.00,361.0,WeatherDisplay:10.37,2013-02-06 18:11:00,
2013-02-06 13:16:00,31.0,15.4,30.28,WNW,288,5.8,6.0,52,0.00,FEW,,0.00,239.0,WeatherDisplay:10.37,2013-02-06 18:16:00,
2013-02-06 13:21:00,31.0,15.8,30.28,West,277,5.6,8.1,53,0.00,FEW,,0.00,491.0,WeatherDisplay:10.37,2013-02-06 18:21:00,
2013-02-06 13:26:00,31.0,15.4,30.28,WNW,288,5.4,9.2,52,0.00,FEW,,0.00,568.0,WeatherDisplay:10.37,2013-02-06 18:26:00,
2013-02-06 13:31:00,31.0,15.8,30.28,WNW,294,4.0,4.5,53,0.00,FEW,,0.00,582.0,WeatherDisplay:10.37,2013-02-06 18:31:00,
2013-02-06 13:36:00,31.2,15.6,30.28,WSW,248,7.4,9.2,52,0.00,FEW,,0.00,577.0,WeatherDisplay:10.37,2013-02-06 18:36:00,
2013-02-06 13:41:00,31.3,16.6,30.28,NW,319,6.3,8.1,54,0.00,FEW,,0.00,572.0,WeatherDisplay:10.37,2013-02-06 18:41:00,
2013-02-06 13:46:00,31.3,15.2,30.28,West,275,11.3,11.3,51,0.00,FEW,,0.00,575.0,WeatherDisplay:10.37,2013-02-06 18:46:00,
2013-02-06 13:51:00,31.3,14.8,30.28,WSW,250,4.7,4.7,50,0.00,FEW,,0.00,568.0,WeatherDisplay:10.37,2013-02-06 18:51:00,
2013-02-06 13:56:00,31.9,16.2,30.28,SW,232,2.4,4.6,52,0.00,FEW,,0.00,554.0,WeatherDisplay:10.37,2013-02-06 18:56:00,
2013-02-06 14:01:00,32.2,15.2,30.28,WNW,298,8.0,8.0,49,0.00,SCT,,0.00,545.0,WeatherDisplay:10.37,2013-02-06 19:01:00,
2013-02-06 14:06:00,32.2,14.2,30.28,WNW,288,6.3,7.5,47,0.00,SCT,,0.00,551.0,WeatherDisplay:10.37,2013-02-06 19:06:00,
2013-02-06 14:11:00,31.9,14.9,30.28,WNW,299,7.2,8.1,49,0.00,SCT,,0.00,538.0,WeatherDisplay:10.37,2013-02-06 19:11:00,
2013-02-06 14:16:00,31.8,14.8,30.27,West,268,6.0,6.0,49,0.00,SCT,,0.00,530.0,WeatherDisplay:10.37,2013-02-06 19:16:00,
2013-02-06 14:21:00,31.9,14.9,30.27,West,270,6.7,8.1,49,0.00,SCT,,0.00,516.0,WeatherDisplay:10.37,2013-02-06 19:21:00,
2013-02-06 14:26:00,31.8,14.8,30.27,South,184,5.9,5.9,49,0.00,SCT,,0.00,519.0,WeatherDisplay:10.37,2013-02-06 19:26:00,
2013-02-06 14:31:00,31.9,15.3,30.27,WNW,292,11.1,11.1,50,0.00,SCT,,0.00,509.0,WeatherDisplay:10.37,2013-02-06 19:31:00,
2013-02-06 14:36:00,31.8,16.2,30.27,NW,326,3.1,4.6,52,0.00,SCT,,0.00,503.0,WeatherDisplay:10.37,2013-02-06 19:36:00,
2013-02-06 14:41:00,31.9,14.9,30.27,WNW,295,5.9,5.9,49,0.00,SCT,,0.00,493.0,WeatherDisplay:10.37,2013-02-06 19:41:00,
2013-02-06 14:46:00,31.8,14.8,30.27,WNW,287,6.3,8.1,49,0.00,SCT,,0.00,486.0,WeatherDisplay:10.37,2013-02-06 19:46:00,
2013-02-06 14:51:00,31.9,14.9,30.27,WNW,287,1.3,4.6,49,0.00,SCT,,0.00,477.0,WeatherDisplay:10.37,2013-02-06 19:51:00,
2013-02-06 14:56:00,32.5,14.5,30.27,WNW,287,4.1,4.6,47,0.00,SCT,,0.00,468.0,WeatherDisplay:10.37,2013-02-06 19:56:00,
2013-02-06 15:01:00,32.5,14.0,30.27,SW,236,3.4,4.6,46,0.00,SCT,,0.00,457.0,WeatherDisplay:10.37,2013-02-06 20:01:00,
2013-02-06 15:06:00,32.5,15.0,30.27,West,265,3.9,4.5,48,0.00,SCT,,0.00,442.0,WeatherDisplay:10.37,2013-02-06 20:06:00,
2013-02-06 15:11:00,32.5,15.0,30.27,SW,226,3.6,4.6,48,0.00,SCT,,0.00,431.0,WeatherDisplay:10.37,2013-02-06 20:11:00,
2013-02-06 15:16:00,32.7,16.5,30.27,WSW,244,1.9,4.6,51,0.00,SCT,,0.00,419.0,WeatherDisplay:10.37,2013-02-06 20:16:00,
2013-02-06 15:21:00,32.8,15.7,30.27,West,280,5.8,7.5,49,0.00,SCT,,0.00,410.0,WeatherDisplay:10.37,2013-02-06 20:21:00,
2013-02-06 15:27:00,32.5,15.0,30.27,West,281,1.2,3.5,48,0.00,SCT,,0.00,399.0,WeatherDisplay:10.37,2013-02-06 20:27:00,
2013-02-06 15:32:00,32.8,16.6,30.27,SSW,205,0.0,1.1,51,0.00,SCT,,0.00,387.0,WeatherDisplay:10.37,2013-02-06 20:32:00,
2013-02-06 15:37:00,33.1,15.5,30.27,South,185,0.5,4.6,48,0.00,SCT,,0.00,375.0,WeatherDisplay:10.37,2013-02-06 20:37:00,
2013-02-06 15:42:00,32.9,15.8,30.27,SE,144,1.3,3.5,49,0.00,SCT,,0.00,359.0,WeatherDisplay:10.37,2013-02-06 20:42:00,
2013-02-06 15:47:00,32.9,15.8,30.27,SE,143,1.1,3.5,49,0.00,SCT,,0.00,345.0,WeatherDisplay:10.37,2013-02-06 20:47:00,
2013-02-06 15:52:00,33.1,16.9,30.27,SSE,147,0.0,0.0,51,0.00,SCT,,0.00,333.0,WeatherDisplay:10.37,2013-02-06 20:52:00,
2013-02-06 15:57:00,33.1,16.9,30.27,SE,138,1.9,3.5,51,0.00,SCT,,0.00,294.0,WeatherDisplay:10.37,2013-02-06 20:57:00,
2013-02-06 16:02:00,32.8,16.2,30.27,SSE,155,1.2,3.5,50,0.00,SCT,,0.00,304.0,WeatherDisplay:10.37,2013-02-06 21:02:00,
2013-02-06 16:07:00,32.9,17.2,30.27,SSE,157,2.3,3.5,52,0.00,SCT,,0.00,287.0,WeatherDisplay:10.37,2013-02-06 21:07:00,
2013-02-06 16:12:00,32.9,17.2,30.27,South,189,1.7,3.5,52,0.00,SCT,,0.00,273.0,WeatherDisplay:10.37,2013-02-06 21:12:00,
2013-02-06 16:17:00,32.9,17.2,30.26,SW,232,2.5,3.5,52,0.00,SCT,,0.00,259.0,WeatherDisplay:10.37,2013-02-06 21:17:00,
2013-02-06 16:22:00,32.7,16.1,30.26,South,174,2.6,10.4,50,0.00,SCT,,0.00,245.0,WeatherDisplay:10.37,2013-02-06 21:22:00,
2013-02-06 16:28:00,32.5,17.2,30.26,South,176,3.3,3.5,53,0.00,SCT,,0.00,188.0,WeatherDisplay:10.37,2013-02-06 21:28:00,
2013-02-06 16:33:00,32.2,16.5,30.26,SSE,151,2.8,4.6,52,0.00,SCT,,0.00,169.0,WeatherDisplay:10.37,2013-02-06 21:33:00,
2013-02-06 16:38:00,32.1,16.9,30.26,SE,126,7.5,9.2,53,0.00,SCT,,0.00,155.0,WeatherDisplay:10.37,2013-02-06 21:38:00,
2013-02-06 16:43:00,31.8,16.6,30.26,SW,232,1.6,3.5,53,0.00,SCT,,0.00,123.0,WeatherDisplay:10.37,2013-02-06 21:43:00,
2013-02-06 16:48:00,31.8,17.5,30.26,South,171,4.0,4.6,55,0.00,SCT,,0.00,155.0,WeatherDisplay:10.37,2013-02-06 21:48:00,
2013-02-06 16:53:00,31.6,17.7,30.26,South,185,3.8,9.2,56,0.00,SCT,,0.00,123.0,WeatherDisplay:10.37,2013-02-06 21:53:00,
2013-02-06 16:58:00,31.2,16.9,30.26,SE,144,3.8,4.6,55,0.00,SCT,,0.00,84.0,WeatherDisplay:10.37,2013-02-06 21:58:00,
2013-02-06 17:03:00,31.0,17.1,30.27,SE,128,4.8,4.8,56,0.00,SCT,,0.00,37.0,WeatherDisplay:10.37,2013-02-06 22:03:00,
2013-02-06 17:08:00,30.6,16.7,30.27,South,185,2.6,4.6,56,0.00,SCT,,0.00,39.0,WeatherDisplay:10.37,2013-02-06 22:08:00,
2013-02-06 17:13:00,30.4,17.0,30.27,South,178,2.7,10.4,57,0.00,SCT,,0.00,25.0,WeatherDisplay:10.37,2013-02-06 22:13:00,
2013-02-06 17:18:00,30.1,17.1,30.29,East,93,2.2,3.5,58,0.00,SCT,,0.00,25.0,WeatherDisplay:10.37,2013-02-06 22:18:00,
2013-02-06 17:23:00,30.0,16.6,30.29,SSW,212,3.0,4.6,57,0.00,SCT,,0.00,21.0,WeatherDisplay:10.37,2013-02-06 22:23:00,
2013-02-06 17:28:00,29.8,17.2,30.29,South,186,1.2,3.5,59,0.00,SCT,,0.00,18.0,WeatherDisplay:10.37,2013-02-06 22:28:00,
2013-02-06 17:33:00,29.4,16.0,30.30,SE,134,5.0,9.2,57,0.00,SCT,,0.00,18.0,WeatherDisplay:10.37,2013-02-06 22:33:00,
2013-02-06 17:38:00,28.8,15.9,30.30,SSW,206,2.4,3.5,58,0.00,SCT,,0.00,12.0,WeatherDisplay:10.37,2013-02-06 22:38:00,
2013-02-06 17:43:00,28.4,15.1,30.30,WSW,239,4.2,4.6,57,0.00,SCT,,0.00,11.0,WeatherDisplay:10.37,2013-02-06 22:43:00,
2013-02-06 17:48:00,28.1,16.0,30.31,SW,230,0.0,0.0,60,0.00,SCT,,0.00,9.0,WeatherDisplay:10.37,2013-02-06 22:48:00,
2013-02-06 17:53:00,27.8,16.1,30.31,SW,230,0.3,3.5,61,0.00,SCT,,0.00,7.0,WeatherDisplay:10.37,2013-02-06 22:53:00,
2013-02-06 17:58:00,27.2,16.3,30.31,SW,229,1.4,3.5,63,0.00,SCT,,0.00,5.0,WeatherDisplay:10.37,2013-02-06 22:58:00,
2013-02-06 18:03:00,26.4,15.9,30.31,SW,215,2.4,3.0,64,0.00,CLR,,0.00,0.0,WeatherDisplay:10.37,2013-02-06 23:03:00,
2013-02-06 18:08:00,26.0,15.8,30.31,SSW,213,0.0,3.5,65,0.00,CLR,,0.00,0.0,WeatherDisplay:10.37,2013-02-06 23:08:00,
2013-02-06 18:13:00,25.8,16.0,30.31,SSW,213,0.3,1.1,66,0.00,CLR,,0.00,0.0,WeatherDisplay:10.37,2013-02-06 23:13:00,
2013-02-06 18:18:00,25.6,16.2,30.32,SSW,213,0.0,0.0,67,0.00,CLR,,0.00,0.0,WeatherDisplay:10.37,2013-02-06 23:18:00,
2013-02-06 18:23:00,25.3,15.9,30.32,SE,126,1.2,1.5,67,0.00,CLR,,0.00,0.0,WeatherDisplay:10.37,2013-02-06 23:23:00,
2013-02-06 18:28:00,25.1,16.0,30.32,SSE,167,3.4,4.6,68,0.00,CLR,,0.00,0.0,WeatherDisplay:10.37,2013-02-06 23:28:00,
2013-02-06 18:33:00,25.0,15.9,30.33,WSW,253,1.5,3.5,68,0.00,CLR,,0.00,0.0,WeatherDisplay:10.37,2013-02-06 23:33:00,
2013-02-06 18:38:00,25.0,15.9,30.33,ESE,117,2.8,3.5,68,0.00,CLR,,0.00,0.0,WeatherDisplay:10.37,2013-02-06 23:38:00,
2013-02-06 18:43:00,24.8,16.1,30.33,ESE,117,0.0,0.0,69,0.00,CLR,,0.00,0.0,WeatherDisplay:10.37,2013-02-06 23:43:00,
2013-02-06 18:48:00,24.7,16.0,30.33,ESE,117,0.2,1.1,69,0.00,CLR,,0.00,0.0,WeatherDisplay:10.37,2013-02-06 23:48:00,
2013-02-06 18:53:00,24.4,16.0,30.33,ESE,117,0.0,0.0,70,0.00,CLR,,0.00,0.0,WeatherDisplay:10.37,2013-02-06 23:53:00,
2013-02-06 18:58:00,24.2,15.8,30.33,ESE,117,0.0,0.0,70,0.00,CLR,,0.00,0.0,WeatherDisplay:10.37,2013-02-06 23:58:00,
2013-02-06 19:03:00,24.1,16.1,30.33,ESE,117,0.0,0.0,71,0.00,CLR,,0.00,0.0,WeatherDisplay:10.37,2013-02-07 00:03:00,
2013-02-06 19:08:00,23.9,16.2,30.33,ESE,117,0.0,0.0,72,0.00,CLR,,0.00,0.0,WeatherDisplay:10.37,2013-02-07 00:08:00,
2013-02-06 19:13:00,23.9,16.5,30.33,ESE,117,0.0,0.0,73,0.00,CLR,,0.00,0.0,WeatherDisplay:10.37,2013-02-07 00:13:00,
2013-02-06 19:18:00,23.8,16.4,30.34,ESE,117,0.6,1.5,73,0.00,CLR,,0.00,0.0,WeatherDisplay:10.37,2013-02-07 00:18:00,
2013-02-06 19:23:00,23.6,16.2,30.34,ESE,117,1.6,1.6,73,0.00,CLR,,0.00,0.0,WeatherDisplay:10.37,2013-02-07 00:23:00,
2013-02-06 19:28:00,23.5,16.1,30.34,ESE,117,0.2,1.1,73,0.00,CLR,,0.00,0.0,WeatherDisplay:10.37,2013-02-07 00:28:00,
2013-02-06 19:33:00,23.2,15.8,30.33,ESE,117,0.0,0.0,73,0.00,CLR,,0.00,0.0,WeatherDisplay:10.37,2013-02-07 00:33:00,
2013-02-06 19:38:00,23.0,15.9,30.33,ESE,117,0.0,0.0,74,0.00,CLR,,0.00,0.0,WeatherDisplay:10.37,2013-02-07 00:38:00,
2013-02-06 19:43:00,22.9,15.8,30.33,ESE,117,0.0,0.0,74,0.00,CLR,,0.00,0.0,WeatherDisplay:10.37,2013-02-07 00:43:00,
2013-02-06 19:48:00,22.7,16.0,30.34,ESE,117,0.0,0.0,75,0.00,CLR,,0.00,0.0,WeatherDisplay:10.37,2013-02-07 00:48:00,
2013-02-06 19:53:00,22.5,15.8,30.34,ESE,117,0.0,0.0,75,0.00,CLR,,0.00,0.0,WeatherDisplay:10.37,2013-02-07 00:53:00,
2013-02-06 19:58:00,22.4,15.7,30.34,ESE,117,0.0,0.0,75,0.00,CLR,,0.00,0.0,WeatherDisplay:10.37,2013-02-07 00:58:00,
2013-02-06 20:03:00,22.2,15.8,30.34,ESE,117,0.0,0.0,76,0.00,CLR,,0.00,0.0,WeatherDisplay:10.37,2013-02-07 01:03:00,
2013-02-06 20:08:00,21.9,15.8,30.34,ESE,117,0.0,0.0,77,0.00,CLR,,0.00,0.0,WeatherDisplay:10.37,2013-02-07 01:08:00,
2013-02-06 20:13:00,21.9,15.8,30.34,ESE,117,1.7,1.7,77,0.00,CLR,,0.00,0.0,WeatherDisplay:10.37,2013-02-07 01:13:00,
2013-02-06 20:18:00,21.9,15.8,30.33,ESE,117,2.4,3.5,77,0.00,CLR,,0.00,0.0,WeatherDisplay:10.37,2013-02-07 01:18:00,
2013-02-06 20:23:00,21.9,15.8,30.33,ESE,117,1.6,3.5,77,0.00,CLR,,0.00,0.0,WeatherDisplay:10.37,2013-02-07 01:23:00,
2013-02-06 20:28:00,21.9,16.1,30.33,ESE,117,1.1,3.5,78,0.00,CLR,,0.00,0.0,WeatherDisplay:10.37,2013-02-07 01:28:00,
2013-02-06 20:33:00,22.1,16.3,30.32,ESE,117,0.5,1.5,78,0.00,CLR,,0.00,0.0,WeatherDisplay:10.37,2013-02-07 01:33:00,
2013-02-06 20:38:00,22.1,16.3,30.32,ESE,117,1.3,1.5,78,0.00,CLR,,0.00,0.0,WeatherDisplay:10.37,2013-02-07 01:38:00,
2013-02-06 20:43:00,22.1,16.3,30.32,ESE,117,1.3,1.5,78,0.00,CLR,,0.00,0.0,WeatherDisplay:10.37,2013-02-07 01:43:00,
2013-02-06 20:48:00,22.1,16.3,30.32,ESE,117,1.7,3.5,78,0.00,CLR,,0.00,0.0,WeatherDisplay:10.37,2013-02-07 01:48:00,
2013-02-06 20:53:00,22.1,16.3,30.32,ESE,117,1.6,1.6,78,0.00,CLR,,0.00,0.0,WeatherDisplay:10.37,2013-02-07 01:53:00,
2013-02-06 20:58:00,22.1,16.3,30.32,ESE,117,0.5,1.5,78,0.00,CLR,,0.00,0.0,WeatherDisplay:10.37,2013-02-07 01:58:00,
2013-02-06 21:03:00,21.9,16.1,30.32,ESE,117,1.6,1.6,78,0.00,CLR,,0.00,0.0,WeatherDisplay:10.37,2013-02-07 02:03:00,
2013-02-06 21:08:00,21.8,16.3,30.32,ESE,117,1.4,3.5,79,0.00,CLR,,0.00,0.0,WeatherDisplay:10.37,2013-02-07 02:08:00,
2013-02-06 21:13:00,21.8,16.3,30.32,ESE,117,1.0,1.5,79,0.00,CLR,,0.00,0.0,WeatherDisplay:10.37,2013-02-07 02:13:00,
2013-02-06 21:18:00,21.6,16.1,30.31,ESE,117,0.5,3.5,79,0.00,CLR,,0.00,0.0,WeatherDisplay:10.37,2013-02-07 02:18:00,
2013-02-06 21:23:00,21.3,16.1,30.31,ESE,117,2.2,3.5,80,0.00,CLR,,0.00,0.0,WeatherDisplay:10.37,2013-02-07 02:23:00,
2013-02-06 21:28:00,21.3,16.1,30.31,ESE,117,2.6,3.0,80,0.00,CLR,,0.00,0.0,WeatherDisplay:10.37,2013-02-07 02:28:00,
2013-02-06 21:33:00,21.3,16.1,30.30,ESE,117,3.4,3.5,80,0.00,CLR,,0.00,0.0,WeatherDisplay:10.37,2013-02-07 02:33:00,
2013-02-06 21:38:00,21.3,16.1,30.30,ESE,117,1.7,3.5,80,0.00,CLR,,0.00,0.0,WeatherDisplay:10.37,2013-02-07 02:38:00,
2013-02-06 21:43:00,21.1,15.9,30.30,ESE,117,0.6,3.0,80,0.00,CLR,,0.00,0.0,WeatherDisplay:10.37,2013-02-07 02:43:00,
2013-02-06 21:48:00,21.0,15.8,30.30,ESE,117,1.9,1.9,80,0.00,CLR,,0.00,0.0,WeatherDisplay:10.37,2013-02-07 02:48:00,
2013-02-06 21:53:00,21.0,15.8,30.30,ESE,117,0.9,1.5,80,0.00,CLR,,0.00,0.0,WeatherDisplay:10.37,2013-02-07 02:53:00,
2013-02-06 21:58:00,21.0,15.8,30.30,ESE,117,0.6,1.1,80,0.00,CLR,,0.00,0.0,WeatherDisplay:10.37,2013-02-07 02:58:00,
2013-02-06 22:03:00,20.8,15.6,30.30,ESE,117,0.0,1.1,80,0.00,CLR,,0.00,0.0,WeatherDisplay:10.37,2013-02-07 03:03:00,
2013-02-06 22:08:00,20.6,15.4,30.30,ESE,117,0.9,1.5,80,0.00,CLR,,0.00,0.0,WeatherDisplay:10.37,2013-02-07 03:08:00,
2013-02-06 22:13:00,20.6,15.7,30.30,ESE,117,2.0,2.0,81,0.00,CLR,,0.00,0.0,WeatherDisplay:10.37,2013-02-07 03:13:00,
2013-02-06 22:18:00,20.8,15.9,30.28,ESE,117,0.9,1.5,81,0.00,CLR,,0.00,0.0,WeatherDisplay:10.37,2013-02-07 03:18:00,
2013-02-06 22:23:00,20.8,15.9,30.28,ESE,117,0.0,0.0,81,0.00,CLR,,0.00,0.0,WeatherDisplay:10.37,2013-02-07 03:23:00,
2013-02-06 22:28:00,21.0,16.1,30.28,ESE,117,1.3,3.0,81,0.00,CLR,,0.00,0.0,WeatherDisplay:10.37,2013-02-07 03:28:00,
2013-02-06 22:33:00,21.1,16.2,30.27,ESE,117,2.7,3.5,81,0.00,CLR,,0.00,0.0,WeatherDisplay:10.37,2013-02-07 03:33:00,
2013-02-06 22:38:00,21.4,16.5,30.27,ESE,117,2.2,3.5,81,0.00,CLR,,0.00,0.0,WeatherDisplay:10.37,2013-02-07 03:38:00,
2013-02-06 22:43:00,21.6,17.0,30.27,ESE,117,1.9,1.9,82,0.00,CLR,,0.00,0.0,WeatherDisplay:10.37,2013-02-07 03:43:00,
2013-02-06 22:48:00,21.8,17.2,30.27,ESE,117,1.9,3.5,82,0.00,CLR,,0.00,0.0,WeatherDisplay:10.37,2013-02-07 03:48:00,
2013-02-06 22:53:00,22.1,17.4,30.27,ESE,117,1.0,3.5,82,0.00,CLR,,0.00,0.0,WeatherDisplay:10.37,2013-02-07 03:53:00,
2013-02-06 22:58:00,22.2,17.5,30.27,ESE,117,3.0,4.6,82,0.00,CLR,,0.00,0.0,WeatherDisplay:10.37,2013-02-07 03:58:00,
2013-02-06 23:03:00,22.4,17.7,30.26,ESE,117,3.0,4.6,82,0.00,CLR,,0.00,0.0,WeatherDisplay:10.37,2013-02-07 04:03:00,
2013-02-06 23:08:00,22.7,18.0,30.26,ESE,117,1.9,3.5,82,0.00,CLR,,0.00,0.0,WeatherDisplay:10.37,2013-02-07 04:08:00,
2013-02-06 23:13:00,22.9,18.2,30.26,ESE,117,2.4,3.5,82,0.00,CLR,,0.00,0.0,WeatherDisplay:10.37,2013-02-07 04:13:00,
2013-02-06 23:18:00,23.0,18.3,30.26,ESE,117,1.9,3.5,82,0.00,CLR,,0.00,0.0,WeatherDisplay:10.37,2013-02-07 04:18:00,
2013-02-06 23:23:00,23.2,18.5,30.26,ESE,117,3.0,3.5,82,0.00,CLR,,0.00,0.0,WeatherDisplay:10.37,2013-02-07 04:23:00,
2013-02-06 23:28:00,23.3,18.6,30.26,ESE,117,3.0,3.5,82,0.00,CLR,,0.00,0.0,WeatherDisplay:10.37,2013-02-07 04:28:00,
2013-02-06 23:33:00,23.5,18.5,30.26,ESE,117,5.8,5.8,81,0.00,CLR,,0.00,0.0,WeatherDisplay:10.37,2013-02-07 04:33:00,
2013-02-06 23:38:00,23.6,18.6,30.26,ESE,112,2.5,3.5,81,0.00,CLR,,0.00,0.0,WeatherDisplay:10.37,2013-02-07 04:38:00,
2013-02-06 23:43:00,23.8,18.5,30.26,ESE,113,1.9,3.5,80,0.00,CLR,,0.00,0.0,WeatherDisplay:10.37,2013-02-07 04:43:00,
2013-02-06 23:48:00,23.9,18.6,30.27,ESE,113,1.3,3.5,80,0.00,CLR,,0.00,0.0,WeatherDisplay:10.37,2013-02-07 04:48:00,
2013-02-06 23:53:00,23.9,18.9,30.27,ESE,113,0.2,1.1,81,0.00,CLR,,0.00,0.0,WeatherDisplay:10.37,2013-02-07 04:53:00,
2013-02-06 23:58:00,23.9,18.9,30.27,ESE,113,0.0,0.0,81,0.00,CLR,,0.00,0.0,WeatherDisplay:10.37,2013-02-07 04:58:00,